{"data":{"norad_id":62230,"intl_designator":"2024-231N","name":"STARLINK-11481 [DTC]","alt_names":[],"object_type":"PAYLOAD","status":"ACTIVE","operator":null,"country":"US","launch_date":"2024-12-05","launch_site_code":"AFWTR","launch_vehicle":null,"mission":null,"orbit_class":"UNKNOWN","rcs_meters":null,"size_class":null,"mass_kg":null,"dimensions":null,"purposes":["comms"],"wikipedia_slug":null,"has_3d_model":false,"image_url":null,"decayed_at":null,"tle_current":{"epoch":"2026-05-25T01:45:32.941152Z","epoch_age_seconds":64924,"freshness":"FRESH","line1":"1 62230U 24231N   26145.07329793  .00090066  00000+0  73905-3 0  9990","line2":"2 62230  53.1567  85.0670 0001121 104.8016 255.3126 15.69748111 85407","mean_motion":15.69748111,"eccentricity":0.0001121,"inclination_deg":53.1567,"raan_deg":85.067,"arg_perigee_deg":104.8016,"mean_anomaly_deg":255.3126,"bstar":0.00073905,"rev_number":8540,"period_min":91.734462995,"perigee_km":358.86239123124,"apogee_km":360.37299583353,"semimajor_km":6737.7546935324,"source":"CELESTRAK","updated_at":"2026-05-25T13:38:19.615668Z"}}}